Weather History for KMCI - August, 2013

Change the Weather History Date:

Saturday, August 24, 2013

  Actual Average Record
Temperature  
Mean Temperature 82 °F 76 °F  
Max Temperature 91 °F 87 °F 109 °F (1936)
Min Temperature 72 °F 66 °F 46 °F (1891)
Degree Days  
Heating Degree Days 0 0  
Month to date heating degree days 0 0  
Since 1 June heating degree days 17 9  
Since 1 July heating degree days 0 0  
Cooling Degree Days 17 11  
Month to date cooling degree days 222 303  
Year to date cooling degree days 970 1099  
Since 1 June cooling degree days 865 983  
Growing Degree Days 31 (Base 50)    
Moisture  
Dew Point 68 °F    
Average Humidity 66    
Maximum Humidity 84    
Minimum Humidity 47    
Precipitation  
Precipitation 0.00 in 0.13 in 1.64 in (1962)
Month to date precipitation 2.12 2.94  
Year to date precipitation 22.67 26.45  
Snow  
Snow 0.00 in 0.00 in 0.00 in ()
Month to date snowfall 0.0 0.0  
Since 1 June snowfall 0.0 0.0  
Since 1 July snowfall 0.0 0.0  
Snow Depth 0.00 in    
Sea Level Pressure  
Sea Level Pressure 30.08 in    
Wind  
Wind Speed 10 mph (SSE)    
Max Wind Speed 18 mph    
Max Gust Speed 23 mph    
Visibility 10 miles    
Events      
T = Trace of Precipitation, MM = Missing Value Source: NWS Daily Summary

Daily Weather History Graph

Daily Weather History Graph

Search for Another Location

Airport or City:

Trip Planner

Search our weather history database for the weather conditions in past years. The results will help you decide how hot, cold, wet, or windy it might be!

Date:

Astronomy

Aug. 24, 2013 Rise Set
Actual Time 6:40 AM CDT 8:01 PM CDT
Civil Twilight 6:12 AM CDT 8:29 PM CDT
Nautical Twilight 5:38 AM CDT 9:02 PM CDT
Astronomical Twilight 5:03 AM CDT 9:37 PM CDT
Moon 9:58 PM CDT (8/24) 10:39 AM CDT (8/24)
Length of Visible Light 14h 16m
Length of Day
13h 20m
Waning Gibbous, 84% of the Moon is Illuminated
Aug 24
Waning Gibbous
Aug 28
Last Quarter
Sep 5
New
Sep 12
First Quarter
Sep 19
Full

Hourly Weather History & Observations

Time (CDT) Temp. Heat Index Dew Point Humidity Pressure Visibility Wind Dir Wind Speed Gust Speed Precip Events Conditions
12:53 AM 72.0 °F - 64.9 °F 78% 30.04 in 10.0 mi SSE 5.8 mph - N/A   Clear
1:53 AM 73.0 °F - 66.0 °F 79% 30.04 in 10.0 mi SE 8.1 mph - N/A   Clear
2:53 AM 73.0 °F - 66.0 °F 79% 30.04 in 10.0 mi SE 8.1 mph - N/A   Scattered Clouds
3:53 AM 73.0 °F - 66.9 °F 81% 30.05 in 10.0 mi SSE 9.2 mph - N/A   Partly Cloudy
4:53 AM 73.0 °F - 66.9 °F 81% 30.06 in 10.0 mi SSE 8.1 mph - N/A   Partly Cloudy
5:53 AM 73.0 °F - 68.0 °F 84% 30.06 in 10.0 mi SSE 10.4 mph - N/A   Scattered Clouds
6:53 AM 73.0 °F - 68.0 °F 84% 30.08 in 10.0 mi SSE 9.2 mph - N/A   Scattered Clouds
7:53 AM 75.0 °F - 69.1 °F 82% 30.10 in 10.0 mi SSE 9.2 mph - N/A   Scattered Clouds
8:53 AM 79.0 °F - 69.1 °F 72% 30.11 in 10.0 mi South 12.7 mph - N/A   Scattered Clouds
9:53 AM 82.9 °F 87.0 °F 70.0 °F 65% 30.12 in 10.0 mi South 9.2 mph - N/A   Mostly Cloudy
10:53 AM 86.0 °F 91.5 °F 71.1 °F 61% 30.12 in 10.0 mi South 9.2 mph - N/A   Mostly Cloudy
11:53 AM 88.0 °F 92.9 °F 70.0 °F 55% 30.11 in 10.0 mi South 13.8 mph - N/A   Mostly Cloudy
12:53 PM 88.0 °F 92.1 °F 69.1 °F 53% 30.12 in 10.0 mi SSW 13.8 mph 20.7 mph N/A   Mostly Cloudy
1:53 PM 89.1 °F 93.7 °F 69.1 °F 52% 30.10 in 10.0 mi SSE 11.5 mph - N/A   Mostly Cloudy
2:53 PM 91.0 °F 95.6 °F 69.1 °F 48% 30.09 in 10.0 mi South 10.4 mph - N/A   Mostly Cloudy
3:53 PM 91.0 °F 95.2 °F 68.0 °F 47% 30.08 in 10.0 mi SSW 15.0 mph 19.6 mph N/A   Mostly Cloudy
4:53 PM 90.0 °F 92.8 °F 66.9 °F 46% 30.07 in 10.0 mi South 11.5 mph - N/A   Mostly Cloudy
5:53 PM 88.0 °F 91.4 °F 68.0 °F 51% 30.06 in 10.0 mi South 12.7 mph - N/A   Scattered Clouds
6:53 PM 84.9 °F 87.6 °F 66.9 °F 55% 30.06 in 10.0 mi South 9.2 mph - N/A   Mostly Cloudy
7:53 PM 82.9 °F 85.4 °F 66.9 °F 58% 30.06 in 10.0 mi SSE 11.5 mph - N/A   Mostly Cloudy
8:53 PM 81.0 °F 83.8 °F 68.0 °F 65% 30.07 in 10.0 mi SSE 9.2 mph - N/A   Clear
9:53 PM 80.1 °F 82.3 °F 66.9 °F 64% 30.09 in 10.0 mi SSE 10.4 mph - N/A   Clear
10:53 PM 78.1 °F - 66.9 °F 68% 30.10 in 10.0 mi SSE 9.2 mph - N/A   Clear
11:53 PM 78.1 °F - 66.9 °F 68% 30.10 in 10.0 mi SSE 9.2 mph - N/A   Clear